| time (UTC) | temp F | wind direction | speed MPH | gust MPH | rain 1hr in | rain 24hr in | rain mn in | humidity % | barometer mb |
| 20260508042006 | 57 | 77 | 0.0 | 0.0 | 0.00 | 0.00 | 0.00 | 87 | 1020.6 |
| 20260508041507 | 57 | 77 | 0.0 | 0.0 | 0.00 | 0.00 | 0.00 | 87 | 1020.6 |
| 20260508041005 | 57 | 77 | 0.0 | 0.0 | 0.00 | 0.00 | 0.00 | 87 | 1020.6 |
| 20260508040505 | 57 | 77 | 0.0 | 0.0 | 0.00 | 0.00 | 0.00 | 87 | 1020.5 |
| 20260508040006 | 57 | 77 | 0.0 | 0.0 | 0.00 | 0.00 | 0.00 | 86 | 1020.5 |
| 20260508035504 | 57 | 77 | 0.0 | 0.0 | 0.00 | 0.00 | 0.00 | 86 | 1020.5 |
| 20260508035004 | 58 | 77 | 0.0 | 0.0 | 0.00 | 0.00 | 0.00 | 85 | 1020.5 |
| 20260508034506 | 58 | 77 | 0.0 | 0.0 | 0.00 | 0.00 | 0.00 | 85 | 1020.4 |
| 20260508034005 | 58 | 77 | 0.0 | 0.0 | 0.00 | 0.00 | 0.00 | 84 | 1020.4 |
| 20260508033500 | 59 | 77 | 0.0 | 0.0 | 0.00 | 0.00 | 0.00 | 83 | 1020.4 |
| 20260508032505 | 60 | 77 | 0.0 | 0.0 | 0.00 | 0.00 | 0.00 | 81 | 1020.2 |
| 20260508032005 | 60 | 77 | 0.0 | 0.0 | 0.00 | 0.00 | 0.00 | 80 | 1020.1 |
| 20260508031500 | 61 | 77 | 0.0 | 0.0 | 0.00 | 0.00 | 0.00 | 80 | 1020.2 |
| 20260508031006 | 61 | 77 | 0.0 | 0.0 | 0.00 | 0.00 | 0.00 | 80 | 1020.1 |
| 20260508025501 | 62 | 77 | 0.0 | 1.0 | 0.00 | 0.00 | 0.00 | 77 | 1020.0 |
| 20260508025006 | 63 | 77 | 0.0 | 1.0 | 0.00 | 0.00 | 0.00 | 76 | 1020.0 |
| 20260508024506 | 63 | 77 | 0.0 | 1.0 | 0.00 | 0.00 | 0.00 | 75 | 1020.0 |
| 20260508023506 | 63 | 77 | 0.0 | 1.0 | 0.00 | 0.00 | 0.00 | 73 | 1020.1 |
| 20260508023006 | 64 | 77 | 0.0 | 1.0 | 0.00 | 0.00 | 0.00 | 71 | 1020.0 |
| 20260508022001 | 65 | 78 | 0.0 | 1.0 | 0.00 | 0.00 | 0.00 | 67 | 1020.1 |
| 20260508021506 | 65 | 78 | 0.0 | 1.0 | 0.00 | 0.00 | 0.00 | 66 | 1020.1 |
| 20260508021005 | 65 | 77 | 0.0 | 1.0 | 0.00 | 0.00 | 0.00 | 66 | 1020.1 |
| 20260508020505 | 65 | 266 | 0.0 | 1.0 | 0.00 | 0.00 | 0.00 | 62 | 1020.1 |
| 20260508020005 | 66 | 156 | 0.0 | 3.0 | 0.00 | 0.00 | 0.00 | 60 | 1020.1 |
| 20260508015505 | 66 | 150 | 0.0 | 3.0 | 0.00 | 0.00 | 0.00 | 59 | 1020.1 |
| 20260508015005 | 67 | 146 | 0.0 | 3.0 | 0.00 | 0.00 | 0.00 | 55 | 1020.2 |
| 20260508014507 | 67 | 75 | 0.0 | 3.0 | 0.00 | 0.00 | 0.00 | 52 | 1020.1 |
| 20260508014005 | 68 | 139 | 0.0 | 5.0 | 0.00 | 0.00 | 0.00 | 49 | 1020.1 |
| 20260508012505 | 69 | 16 | 0.0 | 2.0 | 0.00 | 0.00 | 0.00 | 39 | 1020.3 |
| 20260508012006 | 69 | 139 | 0.0 | 4.0 | 0.00 | 0.00 | 0.00 | 46 | 1020.2 |
| 20260508011505 | 69 | 100 | 1.0 | 4.0 | 0.00 | 0.00 | 0.00 | 44 | 1020.2 |
| 20260508011005 | 69 | 123 | 1.0 | 8.0 | 0.00 | 0.00 | 0.00 | 42 | 1020.1 |
| 20260508010500 | 70 | 37 | 1.0 | 8.0 | 0.00 | 0.00 | 0.00 | 40 | 1020.2 |
| 20260508005505 | 70 | 44 | 1.0 | 7.0 | 0.00 | 0.00 | 0.00 | 36 | 1020.2 |
| 20260508004006 | 71 | 104 | 2.0 | 8.0 | 0.00 | 0.00 | 0.00 | 34 | 1020.2 |
| 20260508003006 | 72 | 139 | 1.0 | 5.0 | 0.00 | 0.00 | 0.00 | 35 | 1020.2 |
| 20260508002504 | 72 | 280 | 1.0 | 5.0 | 0.00 | 0.00 | 0.00 | 34 | 1020.2 |
| 20260508002007 | 73 | 145 | 1.0 | 5.0 | 0.00 | 0.00 | 0.00 | 34 | 1020.1 |
| 20260508001505 | 73 | 122 | 1.0 | 6.0 | 0.00 | 0.00 | 0.00 | 33 | 1020.1 |
| 20260508000505 | 74 | 113 | 1.0 | 4.0 | 0.00 | 0.00 | 0.00 | 33 | 1020.1 |
| 20260508000007 | 74 | 58 | 1.0 | 5.0 | 0.00 | 0.00 | 0.00 | 36 | 1020.1 |
| 20260507235505 | 74 | 102 | 2.0 | 8.0 | 0.00 | 0.00 | 0.00 | 33 | 1020.1 |
| 20260507234505 | 75 | 110 | 2.0 | 7.0 | 0.00 | 0.00 | 0.00 | 37 | 1020.1 |
| 20260507234005 | 76 | 199 | 2.0 | 5.0 | 0.00 | 0.00 | 0.00 | 36 | 1020.1 |
| 20260507233505 | 76 | 167 | 2.0 | 7.0 | 0.00 | 0.00 | 0.00 | 34 | 1020.2 |
| 20260507233006 | 76 | 94 | 2.0 | 7.0 | 0.00 | 0.00 | 0.00 | 36 | 1020.2 |
| 20260507232505 | 77 | 109 | 2.0 | 6.0 | 0.00 | 0.00 | 0.00 | 38 | 1020.2 |
| 20260507231505 | 76 | 115 | 2.0 | 7.0 | 0.00 | 0.00 | 0.00 | 44 | 1020.1 |
| 20260507231007 | 75 | 79 | 3.0 | 9.0 | 0.00 | 0.00 | 0.00 | 42 | 1020.2 |
| 20260507230506 | 76 | 112 | 3.0 | 11.0 | 0.00 | 0.00 | 0.00 | 40 | 1020.2 |
| 20260507230005 | 76 | 118 | 2.0 | 11.0 | 0.00 | 0.00 | 0.00 | 38 | 1020.3 |
| 20260507225505 | 77 | 258 | 2.0 | 6.0 | 0.00 | 0.00 | 0.00 | 40 | 1020.4 |
| 20260507225010 | 76 | 123 | 2.0 | 6.0 | 0.00 | 0.00 | 0.00 | 42 | 1020.5 |
| 20260507224505 | 77 | 225 | 2.0 | 7.0 | 0.00 | 0.00 | 0.00 | 41 | 1020.4 |
| 20260507224006 | 77 | 56 | 2.0 | 7.0 | 0.00 | 0.00 | 0.00 | 37 | 1020.5 |
| 20260507223505 | 78 | 74 | 2.0 | 6.0 | 0.00 | 0.00 | 0.00 | 37 | 1020.4 |
| 20260507222505 | 78 | 129 | 2.0 | 8.0 | 0.00 | 0.00 | 0.00 | 37 | 1020.6 |
| 20260507222006 | 77 | 148 | 2.0 | 8.0 | 0.00 | 0.00 | 0.00 | 38 | 1020.7 |
| 20260507221504 | 77 | 221 | 2.0 | 5.0 | 0.00 | 0.00 | 0.00 | 40 | 1020.7 |
| 20260507221005 | 76 | 84 | 2.0 | 5.0 | 0.00 | 0.00 | 0.00 | 40 | 1020.7 |
| 20260507215507 | 76 | 198 | 2.0 | 8.0 | 0.00 | 0.00 | 0.00 | 41 | 1020.8 |
| 20260507215007 | 75 | 167 | 2.0 | 12.0 | 0.00 | 0.00 | 0.00 | 42 | 1020.9 |
| 20260507214005 | 75 | 252 | 3.0 | 6.0 | 0.00 | 0.00 | 0.00 | 47 | 1021.0 |
| 20260507213504 | 76 | 55 | 2.0 | 7.0 | 0.00 | 0.00 | 0.00 | 45 | 1020.9 |
| 20260507213011 | 76 | 68 | 2.0 | 7.0 | 0.00 | 0.00 | 0.00 | 48 | 1020.8 |
| 20260507212505 | 75 | 82 | 2.0 | 8.0 | 0.00 | 0.00 | 0.00 | 50 | 1021.0 |
| 20260507212007 | 76 | 139 | 2.0 | 8.0 | 0.00 | 0.00 | 0.00 | 48 | 1021.1 |
| 20260507211506 | 76 | 155 | 2.0 | 6.0 | 0.00 | 0.00 | 0.00 | 49 | 1021.3 |
| 20260507211005 | 75 | 317 | 2.0 | 9.0 | 0.00 | 0.00 | 0.00 | 51 | 1021.1 |
| 20260507210506 | 75 | 266 | 2.0 | 9.0 | 0.00 | 0.00 | 0.00 | 53 | 1021.2 |
| 20260507210007 | 76 | 44 | 2.0 | 9.0 | 0.00 | 0.00 | 0.00 | 48 | 1021.2 |
| 20260507205005 | 76 | 65 | 2.0 | 10.0 | 0.00 | 0.00 | 0.00 | 48 | 1021.1 |
| 20260507204507 | 75 | 115 | 2.0 | 6.0 | 0.00 | 0.00 | 0.00 | 50 | 1021.2 |
| 20260507204006 | 75 | 95 | 3.0 | 8.0 | 0.00 | 0.00 | 0.00 | 49 | 1021.0 |
| 20260507203506 | 75 | 110 | 3.0 | 8.0 | 0.00 | 0.00 | 0.00 | 50 | 1021.2 |
| 20260507203005 | 75 | 53 | 2.0 | 5.0 | 0.00 | 0.00 | 0.00 | 50 | 1021.1 |
| 20260507202505 | 75 | 186 | 2.0 | 5.0 | 0.00 | 0.00 | 0.00 | 51 | 1021.2 |
| 20260507202006 | 74 | 117 | 2.0 | 6.0 | 0.00 | 0.00 | 0.00 | 51 | 1021.2 |
| 20260507201010 | 74 | 122 | 2.0 | 8.0 | 0.00 | 0.00 | 0.00 | 49 | 1021.2 |
| 20260507200505 | 75 | 90 | 2.0 | 6.0 | 0.00 | 0.00 | 0.00 | 47 | 1021.4 |
| 20260507200008 | 75 | 79 | 2.0 | 5.0 | 0.00 | 0.00 | 0.00 | 53 | 1021.3 |
| 20260507195005 | 74 | 268 | 2.0 | 5.0 | 0.00 | 0.00 | 0.00 | 50 | 1021.2 |
| 20260507194506 | 75 | 107 | 2.0 | 8.0 | 0.00 | 0.00 | 0.00 | 49 | 1021.2 |
| 20260507193508 | 75 | 237 | 2.0 | 6.0 | 0.00 | 0.00 | 0.00 | 49 | 1021.4 |
| 20260507193003 | 75 | 229 | 2.0 | 6.0 | 0.00 | 0.00 | 0.00 | 53 | 1021.4 |
| 20260507192505 | 74 | 141 | 2.0 | 6.0 | 0.00 | 0.00 | 0.00 | 52 | 1021.3 |
| 20260507191506 | 75 | 117 | 2.0 | 6.0 | 0.00 | 0.00 | 0.00 | 54 | 1021.3 |
| 20260507191006 | 74 | 136 | 2.0 | 5.0 | 0.00 | 0.00 | 0.00 | 55 | 1021.2 |
| 20260507185505 | 73 | 130 | 2.0 | 8.0 | 0.00 | 0.00 | 0.00 | 55 | 1021.4 |
| 20260507184506 | 74 | 53 | 1.0 | 7.0 | 0.00 | 0.00 | 0.00 | 52 | 1021.4 |
| 20260507184005 | 75 | 37 | 1.0 | 4.0 | 0.00 | 0.00 | 0.00 | 51 | 1021.4 |
| 20260507183505 | 74 | 230 | 2.0 | 4.0 | 0.00 | 0.00 | 0.00 | 54 | 1021.3 |
| 20260507183006 | 74 | 131 | 2.0 | 6.0 | 0.00 | 0.00 | 0.00 | 52 | 1021.3 |
| 20260507182505 | 74 | 193 | 2.0 | 6.0 | 0.00 | 0.00 | 0.00 | 51 | 1021.3 |
| 20260507182005 | 74 | 81 | 2.0 | 5.0 | 0.00 | 0.00 | 0.00 | 50 | 1021.3 |
| 20260507181501 | 74 | 110 | 1.0 | 5.0 | 0.00 | 0.00 | 0.00 | 50 | 1021.4 |
| 20260507180505 | 73 | 113 | 1.0 | 4.0 | 0.00 | 0.00 | 0.00 | 51 | 1021.4 |
| 20260507175007 | 73 | 242 | 1.0 | 2.0 | 0.00 | 0.00 | 0.00 | 49 | 1021.5 |
| 20260507174505 | 72 | 65 | 1.0 | 4.0 | 0.00 | 0.00 | 0.00 | 51 | 1021.5 |
| 20260507174004 | 72 | 96 | 1.0 | 4.0 | 0.00 | 0.00 | 0.00 | 46 | 1021.4 |
| 20260507173500 | 73 | 187 | 1.0 | 3.0 | 0.00 | 0.00 | 0.00 | 48 | 1021.4 |
| 20260507172506 | 72 | 77 | 0.0 | 3.0 | 0.00 | 0.00 | 0.00 | 47 | 1021.4 |
| 20260507172007 | 72 | 219 | 1.0 | 3.0 | 0.00 | 0.00 | 0.00 | 48 | 1021.4 |
| 20260507171506 | 71 | 266 | 1.0 | 3.0 | 0.00 | 0.00 | 0.00 | 51 | 1021.3 |
| 20260507171006 | 71 | 139 | 0.0 | 3.0 | 0.00 | 0.00 | 0.00 | 48 | 1021.3 |
| 20260507170506 | 71 | 112 | 1.0 | 2.0 | 0.00 | 0.00 | 0.00 | 50 | 1021.2 |
| 20260507170005 | 70 | 249 | 1.0 | 3.0 | 0.00 | 0.00 | 0.00 | 49 | 1021.4 |
| 20260507165505 | 70 | 130 | 0.0 | 3.0 | 0.00 | 0.00 | 0.00 | 47 | 1021.4 |
| 20260507164505 | 69 | 217 | 1.0 | 3.0 | 0.00 | 0.00 | 0.00 | 50 | 1021.2 |
| 20260507164005 | 68 | 139 | 0.0 | 3.0 | 0.00 | 0.00 | 0.00 | 50 | 1021.2 |
| 20260507163505 | 67 | 145 | 1.0 | 2.0 | 0.00 | 0.00 | 0.00 | 53 | 1021.3 |
| 20260507162507 | 66 | 128 | 1.0 | 4.0 | 0.00 | 0.00 | 0.00 | 53 | 1021.2 |
| 20260507162006 | 66 | 136 | 1.0 | 3.0 | 0.00 | 0.00 | 0.00 | 53 | 1021.2 |
| 20260507161505 | 66 | 120 | 0.0 | 2.0 | 0.00 | 0.00 | 0.00 | 54 | 1021.2 |
| 20260507161006 | 65 | 110 | 1.0 | 2.0 | 0.00 | 0.00 | 0.00 | 54 | 1021.3 |
| 20260507160506 | 65 | 152 | 0.0 | 2.0 | 0.00 | 0.00 | 0.00 | 56 | 1021.2 |
| 20260507160001 | 64 | 211 | 1.0 | 2.0 | 0.00 | 0.00 | 0.00 | 57 | 1021.2 |
| 20260507155008 | 62 | 143 | 1.0 | 2.0 | 0.00 | 0.00 | 0.00 | 60 | 1021.3 |
| 20260507154506 | 62 | 137 | 1.0 | 2.0 | 0.00 | 0.00 | 0.00 | 61 | 1021.2 |
| 20260507154008 | 62 | 138 | 0.0 | 1.0 | 0.00 | 0.00 | 0.00 | 57 | 1021.2 |
| 20260507153506 | 62 | 135 | 0.0 | 1.0 | 0.00 | 0.00 | 0.00 | 57 | 1021.2 |
| 20260507153007 | 63 | 134 | 0.0 | 1.0 | 0.00 | 0.00 | 0.00 | 56 | 1021.2 |
| 20260507152506 | 63 | 137 | 0.0 | 1.0 | 0.00 | 0.00 | 0.00 | 55 | 1021.2 |
| 20260507152007 | 63 | 79 | 0.0 | 1.0 | 0.00 | 0.00 | 0.00 | 57 | 1021.2 |
| 20260507150506 | 60 | 79 | 0.0 | 1.0 | 0.00 | 0.00 | 0.00 | 66 | 1021.2 |
| 20260507150006 | 59 | 79 | 0.0 | 1.0 | 0.00 | 0.00 | 0.00 | 66 | 1021.1 |
| 20260507145507 | 58 | 233 | 0.0 | 1.0 | 0.00 | 0.00 | 0.00 | 70 | 1021.2 |
| 20260507145010 | 57 | 233 | 0.0 | 0.0 | 0.00 | 0.00 | 0.00 | 73 | 1021.1 |
| 20260507144505 | 55 | 232 | 0.0 | 0.0 | 0.00 | 0.00 | 0.00 | 70 | 1021.1 |
| 20260507144007 | 54 | 232 | 0.0 | 2.0 | 0.00 | 0.00 | 0.00 | 70 | 1021.2 |
| 20260507143506 | 53 | 232 | 0.0 | 2.0 | 0.00 | 0.00 | 0.00 | 69 | 1021.1 |
| 20260507143009 | 53 | 51 | 0.0 | 1.0 | 0.00 | 0.00 | 0.00 | 76 | 1021.1 |
| 20260507142507 | 52 | 51 | 0.0 | 1.0 | 0.00 | 0.00 | 0.00 | 76 | 1021.1 |
| 20260507142007 | 51 | 51 | 0.0 | 0.0 | 0.00 | 0.00 | 0.00 | 80 | 1021.2 |
| 20260507141506 | 51 | 51 | 0.0 | 0.0 | 0.00 | 0.00 | 0.00 | 78 | 1021.0 |
| 20260507140506 | 50 | 51 | 0.0 | 1.0 | 0.00 | 0.00 | 0.00 | 79 | 1021.0 |
| 20260507140008 | 49 | 51 | 0.0 | 1.0 | 0.00 | 0.00 | 0.00 | 82 | 1021.0 |
| 20260507135007 | 49 | 51 | 0.0 | 0.0 | 0.00 | 0.00 | 0.00 | 82 | 1020.8 |
| 20260507134507 | 49 | 51 | 0.0 | 1.0 | 0.00 | 0.00 | 0.00 | 81 | 1020.7 |
| 20260507134005 | 49 | 51 | 0.0 | 1.0 | 0.00 | 0.00 | 0.00 | 81 | 1020.8 |
| 20260507133505 | 49 | 51 | 0.0 | 1.0 | 0.00 | 0.00 | 0.00 | 78 | 1020.7 |
| 20260507133008 | 49 | 51 | 0.0 | 1.0 | 0.00 | 0.00 | 0.00 | 80 | 1020.7 |
| 20260507132507 | 50 | 281 | 0.0 | 0.0 | 0.00 | 0.00 | 0.00 | 77 | 1020.7 |
| 20260507132007 | 50 | 281 | 0.0 | 0.0 | 0.00 | 0.00 | 0.00 | 76 | 1020.6 |
| 20260507131507 | 50 | 281 | 0.0 | 1.0 | 0.00 | 0.00 | 0.00 | 76 | 1020.5 |
| 20260507131006 | 50 | 281 | 0.0 | 1.0 | 0.00 | 0.00 | 0.00 | 77 | 1020.5 |
| 20260507130507 | 49 | 281 | 0.0 | 0.0 | 0.00 | 0.00 | 0.00 | 78 | 1020.5 |
| 20260507130007 | 49 | 281 | 0.0 | 0.0 | 0.00 | 0.00 | 0.00 | 78 | 1020.5 |
| 20260507125504 | 49 | 281 | 0.0 | 1.0 | 0.00 | 0.00 | 0.00 | 80 | 1020.6 |
| 20260507124508 | 49 | 281 | 0.0 | 1.0 | 0.00 | 0.00 | 0.00 | 82 | 1020.6 |
| 20260507124007 | 50 | 278 | 0.0 | 1.0 | 0.00 | 0.00 | 0.00 | 79 | 1020.6 |
| 20260507123505 | 49 | 279 | 0.0 | 1.0 | 0.00 | 0.00 | 0.00 | 79 | 1020.6 |
| 20260507123007 | 49 | 279 | 0.0 | 1.0 | 0.00 | 0.00 | 0.00 | 80 | 1020.5 |
| 20260507122505 | 49 | 279 | 0.0 | 1.0 | 0.00 | 0.00 | 0.00 | 80 | 1020.6 |
| 20260507122006 | 49 | 279 | 0.0 | 1.0 | 0.00 | 0.00 | 0.00 | 82 | 1020.6 |
| 20260507121505 | 49 | 279 | 0.0 | 1.0 | 0.00 | 0.00 | 0.00 | 83 | 1020.6 |
| 20260507121017 | 49 | 279 | 0.0 | 1.0 | 0.00 | 0.00 | 0.00 | 82 | 1020.7 |
| 20260507115505 | 49 | 279 | 0.0 | 1.0 | 0.00 | 0.00 | 0.00 | 86 | 1020.6 |
| 20260507114005 | 48 | 279 | 0.0 | 1.0 | 0.00 | 0.00 | 0.00 | 91 | 1020.6 |
| 20260507113505 | 47 | 274 | 0.0 | 1.0 | 0.00 | 0.00 | 0.00 | 94 | 1020.6 |
| 20260507113006 | 47 | 219 | 0.0 | 1.0 | 0.00 | 0.00 | 0.00 | 94 | 1020.6 |
| 20260507112506 | 47 | 219 | 0.0 | 1.0 | 0.00 | 0.00 | 0.00 | 94 | 1020.6 |
| 20260507112006 | 47 | 219 | 0.0 | 1.0 | 0.00 | 0.00 | 0.00 | 94 | 1020.6 |
| 20260507111507 | 47 | 219 | 0.0 | 0.0 | 0.00 | 0.00 | 0.00 | 94 | 1020.6 |
| 20260507111006 | 48 | 219 | 0.0 | 1.0 | 0.00 | 0.00 | 0.00 | 94 | 1020.7 |
| 20260507110504 | 47 | 219 | 0.0 | 0.0 | 0.00 | 0.00 | 0.00 | 94 | 1020.6 |
| 20260507110006 | 47 | 219 | 0.0 | 0.0 | 0.00 | 0.00 | 0.00 | 94 | 1020.6 |
| 20260507105006 | 48 | 219 | 0.0 | 1.0 | 0.00 | 0.00 | 0.00 | 94 | 1020.7 |
| 20260507104507 | 48 | 219 | 0.0 | 1.0 | 0.00 | 0.00 | 0.00 | 94 | 1020.7 |
| 20260507104004 | 48 | 219 | 0.0 | 0.0 | 0.00 | 0.00 | 0.00 | 94 | 1020.6 |
| 20260507103505 | 48 | 219 | 0.0 | 1.0 | 0.00 | 0.00 | 0.00 | 95 | 1020.7 |
| 20260507103008 | 48 | 219 | 0.0 | 1.0 | 0.00 | 0.00 | 0.00 | 95 | 1020.6 |
| 20260507102507 | 48 | 219 | 0.0 | 0.0 | 0.00 | 0.00 | 0.00 | 95 | 1020.6 |
| 20260507102007 | 48 | 219 | 0.0 | 1.0 | 0.00 | 0.00 | 0.00 | 95 | 1020.6 |
| 20260507101506 | 48 | 219 | 0.0 | 1.0 | 0.00 | 0.00 | 0.00 | 95 | 1020.6 |
| 20260507101006 | 48 | 219 | 0.0 | 0.0 | 0.00 | 0.00 | 0.00 | 95 | 1020.6 |
| 20260507100506 | 48 | 219 | 0.0 | 0.0 | 0.00 | 0.00 | 0.00 | 95 | 1020.6 |
| 20260507100007 | 48 | 219 | 0.0 | 0.0 | 0.00 | 0.00 | 0.00 | 95 | 1020.6 |
| 20260507095508 | 48 | 219 | 0.0 | 0.0 | 0.00 | 0.00 | 0.00 | 95 | 1020.5 |
| 20260507095005 | 49 | 219 | 0.0 | 0.0 | 0.00 | 0.00 | 0.00 | 95 | 1020.6 |
| 20260507094506 | 49 | 219 | 0.0 | 0.0 | 0.00 | 0.00 | 0.00 | 95 | 1020.5 |
| 20260507093509 | 49 | 219 | 0.0 | 0.0 | 0.00 | 0.00 | 0.00 | 95 | 1020.7 |
| 20260507092506 | 49 | 219 | 0.0 | 1.0 | 0.00 | 0.00 | 0.00 | 95 | 1020.7 |
| 20260507091505 | 49 | 219 | 0.0 | 0.0 | 0.00 | 0.00 | 0.00 | 95 | 1020.8 |
| 20260507090505 | 49 | 219 | 0.0 | 0.0 | 0.00 | 0.00 | 0.00 | 95 | 1020.7 |
| 20260507090007 | 49 | 219 | 0.0 | 0.0 | 0.00 | 0.00 | 0.00 | 95 | 1020.8 |
| 20260507085506 | 49 | 219 | 0.0 | 0.0 | 0.00 | 0.00 | 0.00 | 95 | 1020.9 |
| 20260507085006 | 49 | 219 | 0.0 | 0.0 | 0.00 | 0.00 | 0.00 | 95 | 1020.8 |
| 20260507084506 | 49 | 219 | 0.0 | 0.0 | 0.00 | 0.00 | 0.00 | 95 | 1020.9 |
| 20260507083507 | 50 | 219 | 0.0 | 1.0 | 0.00 | 0.00 | 0.00 | 95 | 1020.8 |
| 20260507083006 | 50 | 219 | 0.0 | 1.0 | 0.00 | 0.00 | 0.00 | 95 | 1020.8 |
| 20260507082506 | 50 | 195 | 0.0 | 0.0 | 0.00 | 0.00 | 0.00 | 95 | 1020.8 |
| 20260507082006 | 50 | 195 | 0.0 | 0.0 | 0.00 | 0.00 | 0.00 | 95 | 1020.9 |
| 20260507081505 | 50 | 195 | 0.0 | 0.0 | 0.00 | 0.00 | 0.00 | 95 | 1020.8 |
| 20260507081007 | 50 | 195 | 0.0 | 0.0 | 0.00 | 0.00 | 0.00 | 95 | 1020.8 |
| 20260507080505 | 50 | 195 | 0.0 | 0.0 | 0.00 | 0.00 | 0.00 | 95 | 1020.8 |
| 20260507080011 | 51 | 195 | 0.0 | 0.0 | 0.00 | 0.00 | 0.00 | 95 | 1020.8 |
| 20260507075506 | 50 | 195 | 0.0 | 0.0 | 0.00 | 0.00 | 0.00 | 95 | 1020.9 |
| 20260507075005 | 50 | 195 | 0.0 | 0.0 | 0.00 | 0.00 | 0.00 | 95 | 1020.8 |
| 20260507074506 | 50 | 195 | 0.0 | 0.0 | 0.00 | 0.00 | 0.00 | 95 | 1020.9 |
| 20260507074006 | 50 | 195 | 0.0 | 1.0 | 0.00 | 0.00 | 0.00 | 95 | 1020.9 |
| 20260507073506 | 50 | 195 | 0.0 | 1.0 | 0.00 | 0.00 | 0.00 | 95 | 1020.9 |
| 20260507073010 | 50 | 199 | 0.0 | 0.0 | 0.00 | 0.00 | 0.00 | 95 | 1021.0 |
| 20260507072506 | 50 | 193 | 0.0 | 0.0 | 0.00 | 0.00 | 0.00 | 95 | 1021.0 |
| 20260507072006 | 50 | 193 | 0.0 | 0.0 | 0.00 | 0.00 | 0.00 | 95 | 1021.0 |
| 20260507071507 | 50 | 193 | 0.0 | 0.0 | 0.00 | 0.00 | 0.00 | 95 | 1021.1 |
| 20260507071006 | 50 | 193 | 0.0 | 0.0 | 0.00 | 0.00 | 0.00 | 95 | 1021.0 |
| 20260507070506 | 50 | 193 | 0.0 | 0.0 | 0.00 | 0.00 | 0.00 | 95 | 1021.1 |
| 20260507070013 | 51 | 193 | 0.0 | 0.0 | 0.00 | 0.00 | 0.00 | 95 | 1021.1 |
| 20260507065506 | 50 | 193 | 0.0 | 0.0 | 0.00 | 0.00 | 0.00 | 95 | 1021.0 |
| 20260507065007 | 50 | 193 | 0.0 | 0.0 | 0.00 | 0.00 | 0.00 | 95 | 1021.0 |
| 20260507064505 | 51 | 193 | 0.0 | 0.0 | 0.00 | 0.00 | 0.00 | 95 | 1021.0 |
| 20260507064005 | 50 | 193 | 0.0 | 0.0 | 0.00 | 0.00 | 0.00 | 94 | 1021.0 |
| 20260507063505 | 51 | 193 | 0.0 | 0.0 | 0.00 | 0.00 | 0.00 | 95 | 1021.1 |
| 20260507063006 | 51 | 193 | 0.0 | 0.0 | 0.00 | 0.00 | 0.00 | 95 | 1021.0 |
| 20260507062505 | 51 | 193 | 0.0 | 0.0 | 0.00 | 0.00 | 0.00 | 95 | 1021.0 |
| 20260507062006 | 51 | 193 | 0.0 | 0.0 | 0.00 | 0.00 | 0.00 | 95 | 1020.9 |
| 20260507061505 | 51 | 193 | 0.0 | 0.0 | 0.00 | 0.00 | 0.00 | 95 | 1021.0 |
| 20260507061005 | 51 | 193 | 0.0 | 0.0 | 0.00 | 0.00 | 0.00 | 95 | 1021.0 |
| 20260507060507 | 51 | 193 | 0.0 | 0.0 | 0.00 | 0.00 | 0.00 | 94 | 1021.0 |
| 20260507060006 | 51 | 193 | 0.0 | 0.0 | 0.00 | 0.00 | 0.00 | 94 | 1021.1 |
| 20260507055506 | 51 | 193 | 0.0 | 0.0 | 0.00 | 0.00 | 0.00 | 94 | 1021.0 |
| 20260507055005 | 51 | 193 | 0.0 | 0.0 | 0.00 | 0.00 | 0.00 | 94 | 1021.0 |
| 20260507054505 | 51 | 193 | 0.0 | 0.0 | 0.00 | 0.00 | 0.00 | 94 | 1021.0 |
| 20260507054006 | 51 | 193 | 0.0 | 0.0 | 0.00 | 0.00 | 0.00 | 94 | 1021.1 |
| 20260507053007 | 51 | 193 | 0.0 | 0.0 | 0.00 | 0.00 | 0.00 | 94 | 1021.1 |
| 20260507052505 | 51 | 193 | 0.0 | 0.0 | 0.00 | 0.00 | 0.00 | 94 | 1021.1 |
| 20260507051507 | 52 | 193 | 0.0 | 0.0 | 0.00 | 0.00 | 0.00 | 94 | 1021.2 |
| 20260507050006 | 52 | 193 | 0.0 | 0.0 | 0.00 | 0.00 | 0.00 | 93 | 1021.0 |
| 20260507045506 | 52 | 193 | 0.0 | 0.0 | 0.00 | 0.00 | 0.00 | 93 | 1021.1 |
| 20260507044505 | 52 | 193 | 0.0 | 0.0 | 0.00 | 0.00 | 0.00 | 93 | 1020.9 |
| 20260507043506 | 52 | 193 | 0.0 | 0.0 | 0.00 | 0.00 | 0.00 | 93 | 1020.9 |
| 20260507043005 | 52 | 193 | 0.0 | 0.0 | 0.00 | 0.00 | 0.00 | 92 | 1020.9 |